カタログに戻る

ONEWEB-0563

運用中通信PO
NORAD 55800·PAYLOAD·🇬🇧 United Kingdom

打ち上げ Mar 9, 2023 から Cape Canaveral Space Force Station

Loading…

次のパス (今後24時間)

TLE

最新Source: CelesTrak SupGP

元期: Sep 14, 2026, 11:34 UTC

1 55800C 23029E   26257.48246946  .00002335  00000+0  57495-2 0  2570
2 55800  87.9129 256.6595 0002075  83.8024  26.1792 13.20768175    11

AllMySatでONEWEB-0563をリアルタイム追跡

Download on the App Store